TimeCST,TemperatureF,Dew PointF,Humidity,Sea Level PressureIn,VisibilityMPH,Wind Direction,Wind SpeedMPH,Gust SpeedMPH,PrecipitationIn,Events,Conditions,WindDirDegrees,DateUTC
12:15 AM,37.4,33.8,87,29.87,10.0,NNE,6.9,-,N/A,,Overcast,30,2013-02-07 06:15:00
12:35 AM,39.2,35.6,87,29.87,10.0,Calm,Calm,-,N/A,,Overcast,0,2013-02-07 06:35:00
12:55 AM,39.2,33.8,81,29.87,10.0,ESE,5.8,-,N/A,,Overcast,120,2013-02-07 06:55:00
1:15 AM,39.2,33.8,81,29.86,10.0,Calm,Calm,-,N/A,,Overcast,0,2013-02-07 07:15:00
1:35 AM,35.6,33.8,93,29.87,10.0,North,4.6,11.5,N/A,,Overcast,350,2013-02-07 07:35:00
1:55 AM,35.6,33.8,93,29.87,10.0,North,10.4,-,N/A,,Overcast,360,2013-02-07 07:55:00
2:15 AM,35.6,33.8,93,29.87,10.0,North,9.2,-,N/A,,Mostly Cloudy,360,2013-02-07 08:15:00
2:35 AM,37.4,33.8,87,29.88,10.0,North,5.8,-,N/A,,Overcast,10,2013-02-07 08:35:00
2:55 AM,37.4,33.8,87,29.89,10.0,NW,6.9,-,N/A,,Overcast,320,2013-02-07 08:55:00
3:15 AM,37.4,33.8,87,29.88,10.0,North,6.9,-,N/A,,Overcast,350,2013-02-07 09:15:00
3:35 AM,35.6,33.8,93,29.87,10.0,North,5.8,-,N/A,,Overcast,360,2013-02-07 09:35:00
3:55 AM,35.6,33.8,93,29.87,10.0,NNW,8.1,-,N/A,,Overcast,340,2013-02-07 09:55:00
4:15 AM,35.6,33.8,93,29.87,10.0,NNW,12.7,-,N/A,,Overcast,330,2013-02-07 10:15:00
4:35 AM,35.6,33.8,93,29.88,10.0,NNW,10.4,-,N/A,,Scattered Clouds,330,2013-02-07 10:35:00
4:55 AM,37.4,33.8,87,29.89,10.0,NNW,11.5,-,N/A,,Mostly Cloudy,330,2013-02-07 10:55:00
5:15 AM,37.4,33.8,87,29.89,10.0,NNW,13.8,-,N/A,,Overcast,330,2013-02-07 11:15:00
5:35 AM,37.4,33.8,87,29.91,10.0,NNW,13.8,-,N/A,,Overcast,330,2013-02-07 11:35:00
6:15 AM,35.6,32.0,87,29.91,10.0,NNW,13.8,21.9,N/A,,Overcast,330,2013-02-07 12:15:00
6:35 AM,35.6,32.0,87,29.91,10.0,NNW,16.1,21.9,N/A,,Overcast,340,2013-02-07 12:35:00
6:55 AM,33.8,32.0,93,29.92,10.0,NNW,17.3,-,N/A,,Overcast,330,2013-02-07 12:55:00
7:15 AM,33.8,32.0,93,29.94,10.0,NNW,13.8,-,N/A,,Scattered Clouds,330,2013-02-07 13:15:00
7:35 AM,33.8,32.0,93,29.95,9.0,NNW,13.8,-,N/A,,Mostly Cloudy,330,2013-02-07 13:35:00
7:55 AM,33.8,32.0,93,29.97,9.0,NNW,13.8,-,N/A,,Partly Cloudy,330,2013-02-07 13:55:00
8:15 AM,33.8,32.0,93,29.98,8.0,NNW,15.0,-,N/A,,Scattered Clouds,330,2013-02-07 14:15:00
8:35 AM,33.8,32.0,93,29.99,7.0,NNW,16.1,-,N/A,,Mostly Cloudy,330,2013-02-07 14:35:00
8:55 AM,33.8,32.0,93,30.00,7.0,NNW,18.4,-,N/A,,Overcast,330,2013-02-07 14:55:00
9:15 AM,33.8,32.0,93,30.01,6.0,NNW,15.0,20.7,N/A,,Overcast,330,2013-02-07 15:15:00
9:35 AM,33.8,32.0,93,30.01,5.0,NNW,16.1,-,N/A,,Overcast,330,2013-02-07 15:35:00
9:55 AM,33.8,32.0,93,30.01,4.0,NNW,15.0,-,N/A,,Overcast,340,2013-02-07 15:55:00
10:15 AM,33.8,32.0,93,30.02,4.0,NNW,16.1,-,N/A,,Overcast,330,2013-02-07 16:15:00
10:35 AM,33.8,30.2,87,30.04,4.0,NNW,17.3,25.3,N/A,,Overcast,330,2013-02-07 16:35:00
10:55 AM,35.6,32.0,87,30.04,4.0,NNW,16.1,25.3,N/A,,Overcast,330,2013-02-07 16:55:00
11:15 AM,33.8,30.2,87,30.05,4.0,NNW,17.3,23.0,N/A,,Overcast,330,2013-02-07 17:15:00
11:35 AM,33.8,30.2,87,30.05,3.0,NNW,20.7,-,N/A,,Overcast,330,2013-02-07 17:35:00
11:55 AM,33.8,30.2,87,30.05,4.0,NNW,17.3,26.5,N/A,,Overcast,340,2013-02-07 17:55:00
12:15 PM,32.0,28.4,87,30.05,5.0,NNW,16.1,25.3,N/A,,Haze,330,2013-02-07 18:15:00
12:35 PM,32.0,28.4,87,30.04,5.0,NNW,20.7,28.8,N/A,,Haze,330,2013-02-07 18:35:00
12:55 PM,33.8,28.4,81,30.05,6.0,NNW,17.3,26.5,N/A,,Haze,340,2013-02-07 18:55:00
1:15 PM,32.0,28.4,87,30.05,6.0,NNW,18.4,26.5,N/A,,Haze,340,2013-02-07 19:15:00
1:35 PM,32.0,28.4,87,30.06,5.0,NNW,17.3,23.0,N/A,,Overcast,340,2013-02-07 19:35:00
1:55 PM,32.0,26.6,80,30.06,6.0,NNW,16.1,26.5,N/A,,Haze,340,2013-02-07 19:55:00
2:15 PM,32.0,26.6,80,30.06,6.0,NNW,20.7,27.6,N/A,,Haze,340,2013-02-07 20:15:00
2:35 PM,32.0,26.6,80,30.06,6.0,NNW,20.7,28.8,N/A,,Haze,330,2013-02-07 20:35:00
2:55 PM,32.0,26.6,80,30.06,5.0,NNW,18.4,26.5,N/A,,Haze,330,2013-02-07 20:55:00
3:15 PM,32.0,26.6,80,30.07,5.0,NNW,20.7,27.6,N/A,,Haze,340,2013-02-07 21:15:00
3:35 PM,32.0,26.6,80,30.08,5.0,NNW,16.1,-,N/A,,Haze,340,2013-02-07 21:35:00
3:55 PM,32.0,26.6,80,30.08,7.0,NNW,18.4,-,N/A,,Overcast,330,2013-02-07 21:55:00
4:15 PM,32.0,26.6,80,30.08,7.0,NNW,20.7,28.8,N/A,,Overcast,340,2013-02-07 22:15:00
4:35 PM,32.0,26.6,80,30.09,7.0,NNW,19.6,26.5,N/A,,Overcast,330,2013-02-07 22:35:00
4:55 PM,32.0,24.8,75,30.10,9.0,North,-9999.0,-,N/A,,Overcast,0,2013-02-07 22:55:00
5:35 PM,32.0,24.8,75,30.12,9.0,NNW,16.1,-,N/A,,Overcast,340,2013-02-07 23:35:00
5:55 PM,32.0,24.8,75,30.13,8.0,North,12.7,20.7,N/A,,Overcast,350,2013-02-07 23:55:00
6:15 PM,32.0,24.8,75,30.14,10.0,North,10.4,18.4,N/A,,Overcast,350,2013-02-08 00:15:00
6:35 PM,32.0,24.8,75,30.15,10.0,North,11.5,-,N/A,,Overcast,350,2013-02-08 00:35:00
6:55 PM,30.2,24.8,80,30.15,10.0,North,17.3,25.3,N/A,,Overcast,360,2013-02-08 00:55:00
7:15 PM,30.2,24.8,80,30.17,10.0,NNW,12.7,23.0,N/A,,Overcast,340,2013-02-08 01:15:00
7:35 PM,30.2,24.8,80,30.17,10.0,North,16.1,-,N/A,,Overcast,360,2013-02-08 01:35:00
7:55 PM,30.2,24.8,80,30.18,10.0,North,15.0,21.9,N/A,,Overcast,360,2013-02-08 01:55:00
8:15 PM,30.2,24.8,80,30.18,10.0,North,11.5,-,N/A,,Overcast,10,2013-02-08 02:15:00
8:35 PM,30.2,24.8,80,30.19,10.0,North,13.8,23.0,N/A,,Overcast,350,2013-02-08 02:35:00
8:55 PM,30.2,24.8,80,30.20,10.0,North,11.5,-,N/A,,Overcast,350,2013-02-08 02:55:00
9:15 PM,30.2,24.8,80,30.20,10.0,North,12.7,19.6,N/A,,Overcast,350,2013-02-08 03:15:00
9:35 PM,30.2,24.8,80,30.21,10.0,North,10.4,-,N/A,,Overcast,350,2013-02-08 03:35:00
9:55 PM,30.2,24.8,80,30.21,10.0,North,12.7,-,N/A,,Overcast,10,2013-02-08 03:55:00
10:15 PM,30.2,23.0,75,30.21,10.0,North,10.4,-,N/A,,Overcast,360,2013-02-08 04:15:00
10:35 PM,30.2,23.0,75,30.21,10.0,NNW,8.1,15.0,N/A,,Overcast,340,2013-02-08 04:35:00
10:55 PM,30.2,23.0,75,30.22,10.0,North,6.9,-,N/A,,Overcast,350,2013-02-08 04:55:00
11:15 PM,30.2,23.0,75,30.22,10.0,North,9.2,15.0,N/A,,Overcast,10,2013-02-08 05:15:00
11:35 PM,30.2,24.8,80,30.22,10.0,NNE,11.5,-,N/A,,Overcast,20,2013-02-08 05:35:00
11:55 PM,30.2,24.8,80,30.23,10.0,NNE,12.7,-,N/A,,Overcast,20,2013-02-08 05:55:00